Voltar ao catálogo

FALCON 9 R/B

AtivoHEO
NORAD 37253·ROCKET BODY·🇺🇸 United States

Lançado Dec 8, 2010 de Cape Canaveral Space Force Station

Loading…

Próximas Passagens (próximas 24 horas)

TLE

AtualizadoSource: Space-Track

Época: Sep 14, 2026, 04:11 UTC

1 37253U 10066K   26257.17431695  .00004529  00000-0  38913-3 0  9998
2 37253  34.5170 160.3513 4009855 238.9711  75.6310  7.38747667399225

Acompanhe FALCON 9 R/B em tempo real com AllMySat

Download on the App Store